Location: Pinon Hills
(34.4429°N, 117.6403°W)
Time: 01:38:51
(UTC-08:00)

Amateur Radio Satellites - All Passes

Search period start: 28 November 2014 01:08
Search period end: 29 November 2014 01:08
Location: Pinon Hills, 34.4429°N, 117.6403°W

Satellite Date Start Highest point End Downlink Frequencies (MHz)
Time Altitude Azimuth
SRMSAT 28 Nov 01:09:53 01:14:02 20° 178° (S) 01:18:12 437.500
DANDE 28 Nov 01:12:22 01:14:35 12° 268° (W) 01:17:01 436.750
ITUPSAT 1 28 Nov 01:13:42 01:18:08 37° 262° (W) 01:22:37 437.325
SWISSCUBE 28 Nov 01:24:17 01:28:16 26° 264° (W) 01:32:18 437.505
KKS-1 28 Nov 01:43:57 01:48:25 86° 257° (WSW) 01:52:53 437.445
ITAMSAT 1 28 Nov 01:54:44 01:59:51 60° 101° (ESE) 02:04:55 435.822/435.867
BEESAT 28 Nov 01:56:53 01:59:06 13° 267° (W) 02:01:19 436.000
RS-15 28 Nov 02:01:13 02:11:52 49° 251° (WSW) 02:23:01 29.354- 29.394
SO-50 28 Nov 02:04:59 02:09:06 38° 113° (ESE) 02:13:21 436.795
YUBILEINY 28 Nov 02:11:38 02:20:27 88° 276° (W) 02:29:17 435.215
STARS 28 Nov 02:35:32 02:39:28 32° 262° (W) 02:43:25 437.465
Oscar 19 28 Nov 02:37:03 02:40:39 19° 294° (WNW) 02:44:15 437.125/150
Gurwin Techsat 1B 28 Nov 02:40:07 02:45:27 85° 284° (WNW) 02:50:45 435.225
JUGNU 28 Nov 02:45:33 02:47:28 12° 195° (SSW) 02:49:23 437.505
HORYU 2 28 Nov 02:57:09 03:01:37 63° 101° (E) 03:06:04 437.375
SRMSAT 28 Nov 02:58:51 03:02:32 17° 189° (S) 03:06:14 437.500
MOZHAYETS 4 28 Nov 03:06:32 03:09:32 18° 68° (ENE) 03:12:33
AO-7 28 Nov 03:12:02 03:19:18 32° 98° (E) 03:26:31 29.400- 29.500
BEESAT 3 28 Nov 03:13:06 03:15:02 13° 48° (NE) 03:16:58 437.485
BEESAT 2 28 Nov 03:29:48 03:32:36 17° 51° (NE) 03:35:23 435.950
PCSat 28 Nov 03:33:58 03:38:44 31° 56° (ENE) 03:43:28 145.827
ITAMSAT 1 28 Nov 03:36:06 03:38:46 14° 296° (WNW) 03:41:27 435.822/435.867
SO-50 28 Nov 03:46:23 03:49:46 21° 310° (NW) 03:53:15 436.795
YUBILEINY 28 Nov 04:13:48 04:18:25 15° 294° (WNW) 04:23:04 435.215
AIST 2 28 Nov 04:14:18 04:17:50 24° 53° (NE) 04:21:19 435.215
ISS 28 Nov 04:29:48 04:32:31 23° 34° (NE) 04:35:13 145.825
HORYU 2 28 Nov 04:36:43 04:37:43 11° 296° (WNW) 04:38:43 437.375
MOZHAYETS 4 28 Nov 04:42:09 04:46:25 38° 262° (W) 04:50:44
STRAND 1 28 Nov 04:45:08 04:48:06 16° 65° (ENE) 04:51:04 437.568
O/OREOS (USA 219) 28 Nov 04:48:46 04:53:10 60° 107° (ESE) 04:57:35 437.305
BEESAT 3 28 Nov 04:49:30 04:53:36 57° 244° (WSW) 04:57:38 437.485
Cubesat XI-IV 28 Nov 04:54:24 04:56:52 13° 92° (E) 04:59:19 437.490
CUBESAT XI-V 28 Nov 04:54:33 04:57:41 18° 68° (ENE) 05:00:50 437.345
PRISM 28 Nov 05:01:48 05:05:56 60° 75° (ENE) 05:10:06 437.425
AO-7 28 Nov 05:04:14 05:12:11 50° 294° (WNW) 05:20:07 29.400- 29.500
BEESAT 2 28 Nov 05:07:07 05:11:02 39° 246° (WSW) 05:14:54 435.950
JAS-2 28 Nov 05:08:19 05:15:12 84° 103° (ESE) 05:21:11 435.910
PCSat 28 Nov 05:17:20 05:22:03 31° 252° (WSW) 05:26:45 145.827
CUTE-I 28 Nov 05:33:08 05:37:55 34° 98° (E) 05:42:40 437.470
AIST 1 28 Nov 05:33:23 05:36:46 22° 76° (ENE) 05:40:06
AIST 2 28 Nov 05:52:48 05:56:24 27° 249° (WSW) 05:59:57 435.215
ISS 28 Nov 06:06:15 06:09:08 28° 229° (SW) 06:12:02 145.825
GONETS M04 28 Nov 06:10:04 06:15:21 18° 80° (E) 06:20:37
STRAND 1 28 Nov 06:21:45 06:26:47 55° 259° (W) 06:31:50 437.568
CUBESAT XI-V 28 Nov 06:30:23 06:34:47 39° 262° (W) 06:39:13 437.345
O/OREOS (USA 219) 28 Nov 06:31:32 06:32:57 11° 303° (WNW) 06:34:23 437.305
Cubesat XI-IV 28 Nov 06:32:04 06:37:18 62° 286° (WNW) 06:42:31 437.490
JAS-2 28 Nov 06:55:45 06:59:06 14° 302° (WNW) 07:02:17 435.910
AIST 1 28 Nov 07:10:49 07:14:20 24° 271° (W) 07:17:48
CUTE-I 28 Nov 07:13:30 07:17:47 26° 292° (WNW) 07:22:03 437.470
CUTE 1.7 + AOD 2 28 Nov 07:54:12 07:57:08 18° 94° (E) 08:00:04 437.475
BRITE-PL 28 Nov 08:01:56 08:05:06 21° 96° (E) 08:08:20 437.365/2234.400
GONETS M04 28 Nov 08:02:13 08:11:01 80° 277° (W) 08:19:54
DOVE 4 28 Nov 08:06:02 08:07:30 12° 93° (E) 08:08:58 437.250
SEEDS 28 Nov 08:23:07 08:27:01 34° 98° (E) 08:30:54 437.485
CINEMA 3 28 Nov 08:23:25 08:24:27 11° 93° (E) 08:25:30 145.822/145.860
DELFI C3 28 Nov 08:29:34 08:30:21 10° 92° (E) 08:31:08 145.870
UKube-1 28 Nov 08:31:49 08:33:24 12° 93° (E) 08:34:58 .
HO-68 28 Nov 08:33:06 08:40:11 59° 102° (ESE) 08:47:11 435.675
AAUSAT CUBESAT 2 28 Nov 08:34:42 08:38:35 34° 98° (E) 08:42:26 437.432
Oscar 11 28 Nov 08:39:46 08:42:51 19° 95° (E) 08:45:55 145.826/435.025
ANTELSAT 28 Nov 08:46:33 08:49:02 15° 68° (ENE) 08:51:31 437.575/2403.000
COMPASS 1 28 Nov 08:51:34 08:55:48 65° 101° (E) 09:00:01 437.405
CANX-2 28 Nov 08:54:34 08:58:52 74° 284° (WNW) 09:03:09 2200.000
GOMX 1 28 Nov 08:57:31 09:01:42 71° 101° (ESE) 09:06:04 467.674
NANOSAT C BR1 28 Nov 08:59:54 09:02:15 15° 67° (ENE) 09:04:36 145.865
BUGSAT 1 28 Nov 09:07:01 09:09:21 15° 68° (ENE) 09:11:40 437.445
DX 1 28 Nov 09:07:57 09:11:55 34° 98° (E) 09:15:50 434.975-435.025
QB50P1 28 Nov 09:09:26 09:12:27 19° 69° (ENE) 09:15:27 145.935-145.965
UWE-3 28 Nov 09:10:00 09:13:17 21° 96° (E) 09:16:37 435.000/436.395/437.385
CUBEBUG 2 28 Nov 09:14:53 09:18:36 28° 97° (E) 09:22:25 437.445
CUTE 1.7 + AOD 2 28 Nov 09:29:17 09:33:05 31° 288° (WNW) 09:36:52 437.475
POPSAT HIP 1 28 Nov 09:33:35 09:37:29 36° 73° (ENE) 09:41:23 437.405
TIGRISAT 28 Nov 09:37:00 09:41:11 60° 75° (ENE) 09:45:22 435.000
ZACube-1 28 Nov 09:38:35 09:42:36 39° 99° (E) 09:46:41 437.345
BRITE-PL 28 Nov 09:40:12 09:43:34 24° 289° (WNW) 09:47:02 437.365/2234.400
DOVE 4 28 Nov 09:41:24 09:45:26 46° 285° (WNW) 09:49:39 437.250
VELOX 1 28 Nov 09:49:26 09:53:19 30° 98° (E) 09:57:10 145.980
UNISAT 6 28 Nov 09:52:05 09:56:21 86° 259° (WSW) 10:00:38 437.425
CINEMA 3 28 Nov 09:57:43 10:01:52 51° 285° (WNW) 10:06:10 145.822/145.860
ESTCUBE 1 28 Nov 09:58:53 10:01:11 14° 93° (E) 10:03:29 437.505/2401.250
SEEDS 28 Nov 09:59:48 10:02:33 17° 291° (WNW) 10:05:18 437.485
DELFI C3 28 Nov 10:01:53 10:05:52 48° 285° (WNW) 10:09:51 145.870
GONETS M04 28 Nov 10:05:32 10:09:14 13° 296° (WNW) 10:12:58
UKube-1 28 Nov 10:05:37 10:09:47 47° 287° (WNW) 10:13:55 .
POLYITAN 1 28 Nov 10:08:25 10:12:40 81° 258° (WSW) 10:16:56 437.675
50 SAT 28 Nov 10:08:35 10:12:27 41° 99° (E) 10:16:19 437.505
QB50P2 28 Nov 10:09:20 10:13:35 79° 258° (WSW) 10:17:51 145.880/145.840
AAUSAT CUBESAT 2 28 Nov 10:11:17 10:13:57 17° 292° (WNW) 10:16:38 437.432
FUNcube-1 28 Nov 10:12:40 10:16:57 80° 283° (WNW) 10:21:19 145.935
DUCHIFAT 1 28 Nov 10:13:36 10:17:50 71° 259° (WSW) 10:22:05 145.980
Oscar 11 28 Nov 10:15:12 10:19:01 30° 288° (WNW) 10:22:49 145.826/435.025
AISAT 28 Nov 10:16:57 10:21:21 67° 101° (ESE) 10:25:44 437.250
CUBEBUG 1 28 Nov 10:20:34 10:24:02 23° 96° (E) 10:27:28 437.445
ANTELSAT 28 Nov 10:21:34 10:25:31 37° 262° (W) 10:29:28 437.575/2403.000
HO-68 28 Nov 10:21:55 10:27:19 24° 298° (WNW) 10:32:43 435.675
NANOSAT C BR1 28 Nov 10:33:48 10:37:47 39° 261° (W) 10:41:46 145.865
HUMSAT D 28 Nov 10:37:41 10:41:51 67° 284° (WNW) 10:46:03 437.325/437.525
BUGSAT 1 28 Nov 10:40:30 10:44:29 39° 261° (W) 10:48:28 437.445
SO-50 28 Nov 10:40:31 10:43:41 17° 48° (NE) 10:46:50 436.795
QB50P1 28 Nov 10:44:24 10:48:07 29° 263° (W) 10:51:51 145.935-145.965
DX 1 28 Nov 10:45:01 10:47:51 17° 292° (WNW) 10:50:42 434.975-435.025
UWE-3 28 Nov 10:46:10 10:49:46 27° 288° (WNW) 10:53:27 435.000/436.395/437.385
CUBEBUG 2 28 Nov 10:51:58 10:55:08 20° 290° (WNW) 10:58:22 437.445
POPSAT HIP 1 28 Nov 11:11:02 11:13:29 15° 266° (W) 11:15:56 437.405
TISAT 1 28 Nov 11:15:18 11:18:39 23° 96° (E) 11:21:58 437.305
ZACube-1 28 Nov 11:16:11 11:18:39 15° 292° (WNW) 11:21:08 437.345
VELOX 1 28 Nov 11:26:28 11:29:41 20° 291° (WNW) 11:32:53 145.980
VERMONT LUNAR 28 Nov 11:29:05 11:31:39 19° 143° (SE) 11:34:14 437.305
PHONESAT 2.4 28 Nov 11:30:06 11:31:51 13° 141° (SE) 11:33:35 2401.200-2431.200
SPROUT 28 Nov 11:33:14 11:37:07 33° 98° (E) 11:40:58 437.525
ESTCUBE 1 28 Nov 11:33:56 11:38:15 44° 287° (WNW) 11:42:32 437.505/2401.250
50 SAT 28 Nov 11:45:31 11:47:22 13° 293° (WNW) 11:49:15 437.505
CUBEBUG 1 28 Nov 11:56:47 12:00:19 25° 290° (WNW) 12:03:50 437.445
CUSAT 1 28 Nov 12:02:32 12:05:08 42° 96° (E) 12:07:36 437.405
Oscar 19 28 Nov 12:10:12 12:15:00 43° 72° (ENE) 12:19:50 437.125/150
SO-50 28 Nov 12:19:46 12:24:35 58° 244° (WSW) 12:29:23 436.795
BEESAT 28 Nov 12:21:30 12:24:46 18° 94° (E) 12:28:01 436.000
Gurwin Techsat 1B 28 Nov 12:21:57 12:23:39 12° 62° (ENE) 12:25:21 435.225
YUBILEINY 28 Nov 12:26:50 12:34:49 39° 76° (ENE) 12:42:43 435.215
AUBIESAT-1 28 Nov 12:34:30 12:38:35 27° 100° (E) 12:42:30 437.475
DANDE 28 Nov 12:40:44 12:43:25 42° 279° (W) 12:45:54 436.750
M-CUBED/EXP-1 PRIME 28 Nov 12:41:26 12:45:54 35° 101° (ESE) 12:50:12 437.505
TISAT 1 28 Nov 12:51:01 12:54:22 23° 290° (WNW) 12:57:43 437.305
VERMONT LUNAR 28 Nov 13:06:13 13:09:49 80° 337° (NNW) 13:13:27 437.305
PHONESAT 2.4 28 Nov 13:06:31 13:10:12 74° 154° (SSE) 13:13:54 2401.200-2431.200
ITAMSAT 1 28 Nov 13:09:05 13:14:14 64° 74° (ENE) 13:19:24 435.822/435.867
SPROUT 28 Nov 13:10:09 13:12:55 17° 292° (WNW) 13:15:41 437.525
ITUPSAT 1 28 Nov 13:17:41 13:22:30 76° 102° (ESE) 13:27:16 437.325
SWISSCUBE 28 Nov 13:27:32 13:32:20 76° 284° (WNW) 13:37:05 437.505
KKS-1 28 Nov 13:39:33 13:43:10 24° 96° (E) 13:46:45 437.445
Oscar 19 28 Nov 13:51:05 13:54:29 18° 266° (W) 13:57:55 437.125/150
HORYU 2 28 Nov 13:52:32 13:56:35 36° 72° (ENE) 14:00:39 437.375
Gurwin Techsat 1B 28 Nov 13:57:35 14:02:53 78° 257° (WSW) 14:08:13 435.225
BEESAT 28 Nov 13:58:17 14:02:42 38° 288° (WNW) 14:07:06 436.000
AO-7 28 Nov 14:07:28 14:14:34 33° 62° (ENE) 14:21:41 29.400- 29.500
RS-15 28 Nov 14:08:46 14:18:34 39° 107° (ESE) 14:28:13 29.354- 29.394
AUBIESAT-1 28 Nov 14:09:15 14:13:27 29° 295° (WNW) 14:17:32 437.475
M-CUBED/EXP-1 PRIME 28 Nov 14:16:49 14:20:40 23° 296° (WNW) 14:24:25 437.505
MaSat-1 28 Nov 14:19:07 14:21:52 33° 295° (WNW) 14:24:24 437.345
YUBILEINY 28 Nov 14:23:39 14:31:28 39° 273° (W) 14:39:16 435.215
STARS 28 Nov 14:28:43 14:33:04 60° 101° (E) 14:37:25 437.465
VERMONT LUNAR 28 Nov 14:45:18 14:48:35 32° 353° (N) 14:51:53 437.305
PHONESAT 2.4 28 Nov 14:45:43 14:49:10 36° 350° (N) 14:52:39 2401.200-2431.200
ITAMSAT 1 28 Nov 14:51:57 14:54:05 12° 268° (W) 14:56:13 435.822/435.867
O/OREOS (USA 219) 28 Nov 15:02:12 15:06:39 63° 69° (ENE) 15:11:05 437.305
JAS-2 28 Nov 15:15:02 15:21:27 30° 65° (ENE) 15:27:59 435.910
KKS-1 28 Nov 15:16:05 15:19:42 25° 290° (WNW) 15:23:18 437.445
HORYU 2 28 Nov 15:30:36 15:33:21 16° 266° (W) 15:36:07 437.375
AO-7 28 Nov 15:59:02 16:06:58 50° 258° (WSW) 16:14:59 29.400- 29.500
STARS 28 Nov 16:08:11 16:09:00 10° 295° (WNW) 16:09:49 437.465
Cubesat XI-IV 28 Nov 16:12:50 16:16:13 17° 65° (ENE) 16:19:36 437.490
RS-15 28 Nov 16:19:50 16:30:27 53° 306° (NW) 16:41:05 29.354- 29.394
VERMONT LUNAR 28 Nov 16:24:12 16:27:34 36° 11° (N) 16:30:56 437.305
PHONESAT 2.4 28 Nov 16:25:05 16:28:29 33° 7° (N) 16:31:53 2401.200-2431.200
MOZHAYETS 4 28 Nov 16:40:40 16:45:19 66° 101° (E) 16:49:55
PRISM 28 Nov 16:51:06 16:52:29 11° 93° (E) 16:53:52 437.425
CUTE-I 28 Nov 16:51:30 16:56:28 40° 71° (ENE) 17:01:25 437.470
JAS-2 28 Nov 16:58:35 17:05:57 54° 261° (W) 17:13:38 435.910
Cubesat XI-IV 28 Nov 17:50:36 17:55:50 53° 260° (W) 18:01:05 437.490
AIST 1 28 Nov 18:00:14 18:02:53 16° 87° (E) 18:05:32
VERMONT LUNAR 28 Nov 18:02:36 18:06:13 73° 206° (SSW) 18:09:49 437.305
PHONESAT 2.4 28 Nov 18:03:50 18:07:34 82° 24° (NNE) 18:11:16 2401.200-2431.200
PCSat 28 Nov 18:11:35 18:16:51 57° 112° (ESE) 18:22:10 145.827
AIST 2 28 Nov 18:11:53 18:13:16 11° 107° (ESE) 18:14:38 435.215
GONETS M04 28 Nov 18:17:22 18:25:41 44° 77° (ENE) 18:33:54
MOZHAYETS 4 28 Nov 18:20:52 18:21:56 11° 295° (WNW) 18:23:00
PRISM 28 Nov 18:24:12 18:28:15 46° 286° (WNW) 18:32:16 437.425
CUBESAT XI-V 28 Nov 18:30:38 18:35:17 69° 101° (E) 18:39:52 437.345
CUTE-I 28 Nov 18:32:35 18:36:36 21° 265° (W) 18:40:38 437.470
STRAND 1 28 Nov 18:35:53 18:40:59 68° 102° (ESE) 18:46:01 437.568
RS-15 28 Nov 18:40:14 18:46:12 16° 335° (NNW) 18:52:14 29.354- 29.394
BEESAT 3 28 Nov 18:40:56 18:44:58 66° 116° (ESE) 18:49:05 437.485
HO-68 28 Nov 18:58:23 19:04:28 31° 64° (ENE) 19:10:33 435.675
BEESAT 2 28 Nov 18:58:53 19:02:59 85° 299° (WNW) 19:07:09 435.950
BRITE-PL 28 Nov 19:09:45 19:13:17 20° 70° (ENE) 19:16:38 437.365/2234.400
SEEDS 28 Nov 19:13:30 19:16:03 16° 68° (ENE) 19:18:38 437.485
AAUSAT CUBESAT 2 28 Nov 19:24:06 19:26:34 16° 68° (ENE) 19:29:03 437.432
AIST 1 28 Nov 19:36:12 19:40:11 34° 281° (W) 19:44:14
COMPASS 1 28 Nov 19:40:23 19:43:56 28° 72° (ENE) 19:47:29 437.405
VERMONT LUNAR 28 Nov 19:42:41 19:44:15 12° 219° (SW) 19:45:48 437.305
PHONESAT 2.4 28 Nov 19:43:23 19:46:03 19° 217° (SW) 19:48:41 2401.200-2431.200
CANX-2 28 Nov 19:44:17 19:48:19 48° 74° (ENE) 19:52:24 2200.000
AIST 2 28 Nov 19:47:16 19:51:22 52° 301° (WNW) 19:55:33 435.215
PCSat 28 Nov 19:56:55 20:00:37 19° 309° (NW) 20:04:21 145.827
DX 1 28 Nov 20:01:00 20:04:13 20° 69° (ENE) 20:07:25 434.975-435.025
GOMX 1 28 Nov 20:02:15 20:06:53 52° 75° (ENE) 20:11:13 467.674
UWE-3 28 Nov 20:06:25 20:07:44 11° 67° (ENE) 20:09:03 435.000/436.395/437.385
CUBEBUG 2 28 Nov 20:11:28 20:14:01 16° 69° (ENE) 20:16:33 437.445
CUBESAT XI-V 28 Nov 20:11:34 20:12:05 10° 296° (WNW) 20:12:35 437.345
GONETS M04 28 Nov 20:14:32 20:22:11 35° 274° (W) 20:29:48
STRAND 1 28 Nov 20:17:31 20:19:31 12° 297° (WNW) 20:21:31 437.568
CUTE 1.7 + AOD 2 28 Nov 20:18:21 20:22:32 69° 259° (W) 20:26:45 437.475
BEESAT 3 28 Nov 20:22:18 20:23:37 11° 313° (NW) 20:24:57 437.485
ZACube-1 28 Nov 20:32:30 20:35:33 20° 70° (ENE) 20:38:36 437.345
DOVE 4 28 Nov 20:43:33 20:48:09 71° 258° (WSW) 20:52:30 437.250
VELOX 1 28 Nov 20:44:49 20:47:56 19° 68° (ENE) 20:51:03 145.980
HO-68 28 Nov 20:45:05 20:51:52 45° 260° (W) 20:58:42 435.675
DELFI C3 28 Nov 20:46:57 20:50:58 63° 76° (ENE) 20:55:01 145.870
BRITE-PL 28 Nov 20:47:00 20:51:35 35° 261° (W) 20:55:51 437.365/2234.400
SEEDS 28 Nov 20:47:46 20:51:35 34° 262° (W) 20:55:25 437.485
50 SAT 28 Nov 20:55:20 20:57:57 17° 69° (ENE) 21:00:35 437.505
CINEMA 3 28 Nov 20:56:10 21:00:34 87° 258° (WSW) 21:04:49 145.822/145.860
UKube-1 28 Nov 20:56:56 21:01:17 90° 256° (WSW) 21:05:40 .
AAUSAT CUBESAT 2 28 Nov 20:58:08 21:01:56 35° 262° (W) 21:05:46 437.432
RS-15 28 Nov 21:01:51 21:05:48 12° 14° (NNE) 21:09:46 29.354- 29.394
JUGNU 28 Nov 21:05:12 21:07:36 13° 166° (SSE) 21:10:01 437.505
FUNcube-1 28 Nov 21:05:30 21:09:33 49° 75° (ENE) 21:13:35 145.935
Oscar 11 28 Nov 21:05:58 21:10:13 61° 259° (W) 21:14:29 145.826/435.025
ISS 28 Nov 21:08:27 21:11:36 46° 133° (SE) 21:14:46 145.825
AISAT 28 Nov 21:11:53 21:16:02 39° 72° (ENE) 21:20:11 437.250
CUBEBUG 1 28 Nov 21:14:56 21:17:12 14° 67° (ENE) 21:19:28 437.445
COMPASS 1 28 Nov 21:16:40 21:19:38 19° 265° (W) 21:22:37 437.405
CANX-2 28 Nov 21:23:26 21:24:30 11° 268° (W) 21:25:34 2200.000
HUMSAT D 28 Nov 21:26:38 21:30:38 52° 75° (ENE) 21:34:39 437.325/437.525
TIGRISAT 28 Nov 21:33:18 21:36:16 17° 95° (E) 21:39:16 435.000
DX 1 28 Nov 21:36:24 21:40:14 29° 262° (W) 21:44:05 434.975-435.025
UWE-3 28 Nov 21:39:45 21:43:51 49° 260° (W) 21:47:54 435.000/436.395/437.385
GOMX 1 28 Nov 21:43:21 21:45:09 12° 266° (W) 21:46:55 467.674
CUBEBUG 2 28 Nov 21:46:34 21:50:27 34° 262° (W) 21:54:17 437.445
UNISAT 6 28 Nov 21:48:05 21:51:53 26° 97° (E) 21:55:43 437.425
POLYITAN 1 28 Nov 21:58:45 22:02:01 22° 96° (E) 22:05:17 437.675
QB50P2 28 Nov 21:59:26 22:02:44 22° 96° (E) 22:06:02 145.880/145.840
DUCHIFAT 1 28 Nov 22:03:13 22:06:38 24° 96° (E) 22:10:01 145.980
TISAT 1 28 Nov 22:06:33 22:08:11 12° 66° (ENE) 22:09:49 437.305
ZACube-1 28 Nov 22:08:13 22:11:46 26° 263° (W) 22:15:17 437.345
ANTELSAT 28 Nov 22:16:43 22:21:09 57° 101° (E) 22:25:41 437.575/2403.000
VELOX 1 28 Nov 22:20:13 22:24:15 33° 262° (W) 22:28:18 145.980
NANOSAT C BR1 28 Nov 22:22:42 22:26:43 41° 99° (E) 22:30:42 145.865
SPROUT 28 Nov 22:25:10 22:28:03 18° 68° (ENE) 22:30:56 437.525
BUGSAT 1 28 Nov 22:26:50 22:30:36 36° 99° (E) 22:34:19 437.445
50 SAT 28 Nov 22:29:30 22:33:01 29° 263° (W) 22:36:32 437.505
ESTCUBE 1 28 Nov 22:29:49 22:34:21 76° 258° (WSW) 22:38:55 437.505/2401.250
QB50P1 28 Nov 22:32:58 22:37:07 57° 100° (E) 22:41:16 145.935-145.965
CUSAT 1 28 Nov 22:41:44 22:46:45 40° 80° (E) 22:53:12 437.405
FUNcube-1 28 Nov 22:45:42 22:46:09 10° 268° (W) 22:46:35 145.935
ISS 28 Nov 22:46:10 22:48:24 17° 329° (NNW) 22:50:40 145.825
CUBEBUG 1 28 Nov 22:48:53 22:53:09 46° 260° (W) 22:57:26 437.445
AISAT 28 Nov 22:50:06 22:52:47 16° 266° (W) 22:55:28 437.250
JUGNU 28 Nov 22:51:56 22:55:54 19° 176° (S) 22:59:52 437.505
POPSAT HIP 1 28 Nov 22:58:12 23:02:24 69° 284° (WNW) 23:06:35 437.405
TIGRISAT 28 Nov 23:08:59 23:13:04 36° 287° (WNW) 23:17:15 435.000
SRMSAT 28 Nov 23:09:20 23:12:44 16° 170° (S) 23:16:09 437.500
RS-15 28 Nov 23:12:58 23:23:03 36° 47° (NE) 23:33:28 29.354- 29.394
AUBIESAT-1 28 Nov 23:21:17 23:24:15 19° 62° (ENE) 23:27:22 437.475
DANDE 28 Nov 23:21:49 23:26:59 78° 82° (E) 23:33:58 436.750
UNISAT 6 28 Nov 23:24:55 23:28:32 24° 290° (WNW) 23:32:13 437.425
BEESAT 28 Nov 23:25:40 23:28:20 15° 66° (ENE) 23:31:00 436.000
M-CUBED/EXP-1 PRIME 28 Nov 23:28:22 23:31:45 25° 64° (ENE) 23:35:22 437.505
POLYITAN 1 28 Nov 23:34:26 23:37:54 25° 289° (WNW) 23:41:22 437.675
QB50P2 28 Nov 23:35:08 23:38:34 25° 289° (WNW) 23:42:01 145.880/145.840
DUCHIFAT 1 28 Nov 23:39:04 23:42:22 23° 290° (WNW) 23:45:40 145.980
TISAT 1 28 Nov 23:39:26 23:43:34 49° 260° (W) 23:47:42 437.305
ANTELSAT 28 Nov 23:55:47 23:57:28 12° 294° (WNW) 23:59:10 437.575/2403.000
MaSat-1 28 Nov 23:59:48 00:02:08 56° 249° (WSW) 00:04:34 437.345
SPROUT 28 Nov 23:59:59 00:03:52 33° 262° (W) 00:07:46 437.525
NANOSAT C BR1 29 Nov 00:00:07 00:02:12 14° 293° (WNW) 00:04:18 145.865
BUGSAT 1 29 Nov 00:03:38 00:05:45 14° 293° (WNW) 00:07:52 437.445
QB50P1 29 Nov 00:12:01 00:12:29 10° 295° (WNW) 00:12:57 145.935-145.965
ITUPSAT 1 29 Nov 00:21:02 00:25:44 58° 74° (ENE) 00:30:29 437.325
CUSAT 1 29 Nov 00:25:17 00:29:47 25° 266° (W) 00:35:16 437.405
Oscar 19 29 Nov 00:26:04 00:29:55 21° 95° (E) 00:33:45 437.125/150
SWISSCUBE 29 Nov 00:30:32 00:35:20 82° 76° (ENE) 00:40:10 437.505
KKS-1 29 Nov 00:35:43 00:38:17 15° 67° (ENE) 00:40:50 437.445
JUGNU 29 Nov 00:40:26 00:44:14 18° 186° (S) 00:48:03 437.505
AUBIESAT-1 29 Nov 00:55:16 00:58:56 32° 259° (W) 01:02:55 437.475
SRMSAT 29 Nov 00:57:04 01:01:13 20° 180° (S) 01:05:24 437.500
